• In Germany
  • List of Countries
  • For 7 days
  • Water Temperature
  • Satellite Maps
  • Weather Map
  • Weather Widgets
  • user-avatar
    Login

    Hourly Weather Bugojno

    Today, 21 November, Tuesday

    Time Temperature Precipitation Wind Pressure Humidity
    00:00 +2°C° 0 mm 1 mps 713 mmHg 67%
    01:00 +2°C° 0 mm 1 mps 713 mmHg 65%
    02:00 +2°C° 0 mm 1 mps 713 mmHg 65%
    03:00 +1°C° 0 mm 2 mps 712 mmHg 64%
    04:00 +1°C° 0 mm 2 mps 712 mmHg 64%
    05:00 +1°C° 0 mm 2 mps 712 mmHg 64%
    06:00 +1°C° 0 mm 2 mps 712 mmHg 64%
    07:00 +1°C° 0 mm 2 mps 712 mmHg 64%
    08:00 +3°C° 0 mm 2 mps 712 mmHg 61%
    09:00 +5°C° 0 mm 2 mps 712 mmHg 59%
    10:00 +7°C° 0 mm 2 mps 713 mmHg 56%
    11:00 +8°C° 0 mm 2 mps 713 mmHg 58%
    12:00 +8°C° 0 mm 2 mps 713 mmHg 60%
    13:00 +9°C° 0 mm 2 mps 713 mmHg 61%
    14:00 +8°C° 0 mm 2 mps 712 mmHg 68%
    15:00 +7°C° 0 mm 2 mps 712 mmHg 74%
    16:00 +5°C° 0 mm 2 mps 712 mmHg 81%
    17:00 +5°C° 0 mm 2 mps 712 mmHg 83%
    18:00 +4°C° 0 mm 2 mps 712 mmHg 86%
    19:00 +3°C° 0 mm 2 mps 712 mmHg 89%
    20:00 +3°C° 0 mm 2 mps 713 mmHg 90%
    21:00 +3°C° 0 mm 2 mps 713 mmHg 90%
    22:00 +3°C° 0 mm 2 mps 713 mmHg 91%
    23:00 +3°C° 0 mm 2 mps 713 mmHg 91%

    Tomorrow, 22 November, Wednesday

    Time Temperature Precipitation Wind Pressure Humidity
    00:00 +3°C° 0 mm 2 mps 713 mmHg 91%
    01:00 +3°C° 0 mm 2 mps 713 mmHg 92%
    02:00 +3°C° 0 mm 2 mps 713 mmHg 92%
    03:00 +4°C° 0 mm 1 mps 713 mmHg 92%
    04:00 +4°C° 0 mm 1 mps 713 mmHg 92%
    05:00 +4°C° 0 mm 1 mps 713 mmHg 91%
    06:00 +3°C° 0 mm 2 mps 713 mmHg 91%
    07:00 +3°C° 0 mm 2 mps 713 mmHg 91%
    08:00 +5°C° 0 mm 2 mps 713 mmHg 86%
    09:00 +7°C° 0 mm 2 mps 714 mmHg 81%
    10:00 +9°C° 0 mm 2 mps 714 mmHg 76%
    11:00 +10°C° 0 mm 2 mps 714 mmHg 74%
    12:00 +12°C° 0 mm 2 mps 714 mmHg 72%
    13:00 +13°C° 0 mm 2 mps 714 mmHg 70%
    14:00 +11°C° 0 mm 1 mps 713 mmHg 76%
    15:00 +10°C° 0 mm 1 mps 713 mmHg 82%
    16:00 +9°C° 0 mm 1 mps 713 mmHg 88%
    17:00 +8°C° 0 mm 1 mps 713 mmHg 90%
    18:00 +7°C° 0 mm 1 mps 713 mmHg 91%
    19:00 +6°C° 0 mm 1 mps 713 mmHg 93%
    20:00 +5°C° 0 mm 2 mps 713 mmHg 92%
    21:00 +5°C° 0 mm 2 mps 713 mmHg 91%
    22:00 +4°C° 0 mm 2 mps 713 mmHg 90%
    23:00 +4°C° 0 mm 2 mps 713 mmHg 89%

    Day after tomorrow, 23 November, Thursday

    Time Temperature Precipitation Wind Pressure Humidity
    00:00 +4°C° 0 mm 2 mps 713 mmHg 88%
    01:00 +4°C° 0 mm 2 mps 713 mmHg 87%
    02:00 +4°C° 0 mm 2 mps 713 mmHg 87%
    03:00 +4°C° 0 mm 2 mps 713 mmHg 87%
    04:00 +4°C° 0 mm 2 mps 713 mmHg 86%
    05:00 +4°C° 0 mm 2 mps 713 mmHg 86%
    06:00 +4°C° 0 mm 2 mps 713 mmHg 86%
    07:00 +4°C° 0 mm 2 mps 714 mmHg 86%
    08:00 +6°C° 0 mm 2 mps 714 mmHg 81%
    09:00 +8°C° 0 mm 2 mps 714 mmHg 77%
    10:00 +11°C° 0 mm 1 mps 715 mmHg 72%
    11:00 +12°C° 0 mm 1 mps 715 mmHg 70%
    12:00 +13°C° 0 mm 1 mps 715 mmHg 68%
    13:00 +13°C° 0 mm 1 mps 715 mmHg 67%
    14:00 +12°C° 0 mm 1 mps 715 mmHg 73%
    15:00 +11°C° 0 mm 1 mps 715 mmHg 79%
    16:00 +9°C° 0 mm 1 mps 715 mmHg 85%
    17:00 +9°C° 0 mm 1 mps 715 mmHg 87%
    18:00 +8°C° 0 mm 1 mps 715 mmHg 89%
    19:00 +7°C° 0 mm 1 mps 715 mmHg 91%
    20:00 +7°C° 0 mm 1 mps 715 mmHg 91%
    21:00 +7°C° 0 mm 1 mps 716 mmHg 90%
    22:00 +6°C° 0 mm 1 mps 716 mmHg 90%
    23:00 +6°C° 0 mm 1 mps 716 mmHg 89%

    24 November, Friday

    Time Temperature Precipitation Wind Pressure Humidity
    00:00 +6°C° 0 mm 1 mps 716 mmHg 88%
    01:00 +6°C° 0 mm 1 mps 716 mmHg 88%
    02:00 +6°C° 0 mm 1 mps 716 mmHg 87%
    03:00 +6°C° 0 mm 1 mps 716 mmHg 86%
    04:00 +6°C° 0 mm 1 mps 716 mmHg 85%
    05:00 +6°C° 0 mm 1 mps 716 mmHg 85%
    06:00 +5°C° 0 mm 1 mps 716 mmHg 84%
    07:00 +5°C° 0 mm 1 mps 716 mmHg 84%
    08:00 +7°C° 0 mm 1 mps 716 mmHg 78%
    09:00 +9°C° 0 mm 1 mps 717 mmHg 73%
    10:00 +10°C° 0 mm 0 mps 717 mmHg 67%
    11:00 +12°C° 0 mm 1 mps 717 mmHg 64%
    12:00 +13°C° 0 mm 1 mps 717 mmHg 62%
    13:00 +14°C° 0 mm 1 mps 717 mmHg 59%
    14:00 +12°C° 0 mm 1 mps 716 mmHg 66%
    15:00 +11°C° 0 mm 1 mps 716 mmHg 73%
    16:00 +9°C° 0 mm 1 mps 716 mmHg 79%
    17:00 +9°C° 0 mm 1 mps 716 mmHg 81%
    18:00 +8°C° 0 mm 1 mps 716 mmHg 83%
    19:00 +7°C° 0 mm 1 mps 716 mmHg 85%
    20:00 +7°C° 0 mm 1 mps 716 mmHg 85%
    21:00 +7°C° 0 mm 1 mps 717 mmHg 84%
    22:00 +6°C° 0 mm 1 mps 717 mmHg 84%
    23:00 +6°C° 0 mm 1 mps 717 mmHg 82%

    25 November, Saturday

    Time Temperature Precipitation Wind Pressure Humidity
    00:00 +6°C° 0 mm 1 mps 717 mmHg 81%
    01:00 +6°C° 0 mm 1 mps 717 mmHg 79%
    02:00 +6°C° 0 mm 1 mps 716 mmHg 78%
    03:00 +6°C° 0 mm 1 mps 716 mmHg 76%
    04:00 +6°C° 0 mm 1 mps 716 mmHg 75%
    05:00 +6°C° 0 mm 1 mps 716 mmHg 74%
    06:00 +6°C° 0 mm 1 mps 716 mmHg 74%
    07:00 +6°C° 0 mm 1 mps 716 mmHg 73%
    08:00 +8°C° 0 mm 1 mps 717 mmHg 68%
    09:00 +10°C° 0 mm 1 mps 717 mmHg 64%
    10:00 +12°C° 0 mm 1 mps 717 mmHg 59%
    11:00 +13°C° 0 mm 1 mps 717 mmHg 58%
    12:00 +13°C° 0 mm 1 mps 717 mmHg 56%
    13:00 +14°C° 0 mm 1 mps 716 mmHg 54%
    14:00 +13°C° 0 mm 1 mps 716 mmHg 61%
    15:00 +11°C° 0 mm 1 mps 716 mmHg 68%
    16:00 +10°C° 0 mm 1 mps 716 mmHg 75%
    17:00 +9°C° 0 mm 1 mps 716 mmHg 77%
    18:00 +8°C° 0 mm 1 mps 716 mmHg 80%
    19:00 +6°C° 0 mm 2 mps 716 mmHg 82%
    20:00 +6°C° 0 mm 2 mps 716 mmHg 82%
    21:00 +5°C° 0 mm 2 mps 716 mmHg 82%
    22:00 +5°C° 0 mm 2 mps 716 mmHg 81%
    23:00 +5°C° 0 mm 2 mps 716 mmHg 81%

    26 November, Sunday

    Time Temperature Precipitation Wind Pressure Humidity
    00:00 +5°C° 0 mm 2 mps 716 mmHg 81%
    01:00 +5°C° 0 mm 2 mps 716 mmHg 81%
    02:00 +5°C° 0 mm 2 mps 716 mmHg 81%
    03:00 +5°C° 0 mm 2 mps 716 mmHg 81%
    04:00 +5°C° 0 mm 2 mps 716 mmHg 81%
    05:00 +5°C° 0 mm 2 mps 716 mmHg 82%
    06:00 +5°C° 0 mm 2 mps 716 mmHg 83%
    07:00 +5°C° 0 mm 2 mps 716 mmHg 83%
    08:00 +6°C° 0 mm 2 mps 716 mmHg 79%
    09:00 +8°C° 0 mm 2 mps 717 mmHg 75%
    10:00 +11°C° 0 mm 1 mps 717 mmHg 71%
    11:00 +12°C° 0 mm 1 mps 717 mmHg 69%
    12:00 +13°C° 0 mm 1 mps 716 mmHg 68%
    13:00 +14°C° 0 mm 1 mps 716 mmHg 66%
    14:00 +12°C° 0 mm 1 mps 716 mmHg 72%
    15:00 +11°C° 0 mm 1 mps 716 mmHg 78%
    16:00 +10°C° 0 mm 1 mps 715 mmHg 84%
    17:00 +9°C° 0 mm 1 mps 715 mmHg 86%
    18:00 +9°C° 0 mm 1 mps 716 mmHg 88%
    19:00 +8°C° 0 mm 1 mps 716 mmHg 90%
    20:00 +8°C° 0 mm 1 mps 716 mmHg 90%
    21:00 +8°C° 0 mm 1 mps 716 mmHg 90%
    22:00 +8°C° 0 mm 1 mps 716 mmHg 90%
    23:00 +8°C° 0.5 mm 1 mps 716 mmHg 91%
    Show more